Weather reports worldwide

Advertisment
Cardinham, United Kingdom (3823): temperature & dewpoint: 11.08.2018 13:00:00 - 17.08.2018 13:00:00 (BST)Cardinham, United Kingdom (3823): temperature -20cm & temperature -100cm: 11.08.2018 13:00:00 - 17.08.2018 13:00:00 (BST)Cardinham, United Kingdom (3823): wind speed & gusts: 11.08.2018 13:00:00 - 17.08.2018 13:00:00 (BST)Cardinham, United Kingdom (3823): wind direction: 11.08.2018 13:00:00 - 17.08.2018 13:00:00 (BST)Cardinham, United Kingdom (3823): reduced air pressure: 11.08.2018 13:00:00 - 17.08.2018 13:00:00 (BST)Cardinham, United Kingdom (3823): visibility: 11.08.2018 13:00:00 - 17.08.2018 13:00:00 (BST)Cardinham, United Kingdom (3823): precipitation: 11.08.2018 13:00:00 - 17.08.2018 13:00:00 (BST)
Date & Time tt [°C] td [°C] tt -20cm [°C] tt -100cm [°C] ff [km/h] ff [kn] fx [km/h] fx [kn] dd ppp [hPa] vv [km] rr [mm]
17.08.2018 13:00:00 17,0 11,8 - - 18 10 - - W 1022,4 23 0,0
17.08.2018 12:00:00 16,9 10,6 - - 21 11 - - WNW 1022,3 35 0,0
17.08.2018 11:00:00 16,5 11,3 - - 18 10 - - WNW 1022,3 22 0,0
17.08.2018 10:00:00 15,0 13,7 18,2 17,0 11 6 - - NW 1022,0 26 0,0
17.08.2018 09:00:00 15,4 12,3 - - 9 5 - - NW 1021,3 24 0,0
17.08.2018 08:00:00 13,4 12,5 - - 9 5 - - W 1021,2 28 0,0
17.08.2018 07:00:00 12,1 11,2 - - 11 6 - - W 1020,7 19 0,0
17.08.2018 06:00:00 12,7 11,9 - - 9 5 - - W 1020,2 16 0,2
17.08.2018 05:00:00 12,6 11,8 - - 11 6 - - W 1019,9 16 0,0
17.08.2018 04:00:00 13,0 12,2 - - 11 6 - - W 1019,8 15 0,0
17.08.2018 03:00:00 12,9 11,9 - - 11 6 - - WNW 1019,6 15 0,0
17.08.2018 02:00:00 12,9 12,0 - - 11 6 - - WNW 1019,5 15 0,0
17.08.2018 01:00:00 12,9 11,8 - - 11 6 - - WNW 1019,5 16 0,0
17.08.2018 00:00:00 12,9 12,0 - - 13 7 - - WNW 1019,2 13 0,0
16.08.2018 23:00:00 12,7 11,5 - - 11 6 - - WNW 1019,0 13 0,0
16.08.2018 22:00:00 12,8 11,4 - - 13 7 - - WNW 1018,4 15 0,0
16.08.2018 21:00:00 13,5 11,0 - - 16 9 - - WNW 1017,9 18 0,0
16.08.2018 20:00:00 14,3 11,4 - - 18 10 - - NW 1017,2 19 0,0
16.08.2018 19:00:00 15,2 11,3 - - 21 11 - - WNW 1016,8 17 0,0
16.08.2018 18:00:00 16,2 11,4 - - 24 13 - - WNW 1016,6 22 0,0
16.08.2018 17:00:00 16,4 11,4 - - 24 13 - - WNW 1016,4 30 0,0
16.08.2018 16:00:00 15,5 12,4 - - 16 9 - - WNW 1016,1 29 0,0
16.08.2018 15:00:00 15,9 10,8 - - 21 11 - - WNW 1015,7 25 0,0
16.08.2018 14:00:00 16,9 11,2 - - 21 11 - - WNW 1015,3 40 0,0
16.08.2018 13:00:00 18,5 12,6 - - 22 12 - - WNW 1014,8 21 0,0
16.08.2018 12:00:00 16,6 12,1 - - 18 10 - - WNW 1014,8 18 0,0
16.08.2018 11:00:00 17,4 14,9 - - 18 10 - - NNW 1014,5 13 0,0
16.08.2018 10:00:00 15,0 14,8 18,2 17,0 13 7 - - WNW 1014,4 9 0,0
16.08.2018 09:00:00 14,2 14,0 - - 11 6 - - W 1014,2 8 0,0
16.08.2018 08:00:00 13,7 13,5 - - 9 5 - - W 1013,7 7 0,2
16.08.2018 07:00:00 13,7 13,4 - - 11 6 - - WNW 1013,7 4,7 3,2
16.08.2018 06:00:00 14,8 14,6 - - 21 11 - - W 1013,3 5 2,4
16.08.2018 05:00:00 15,2 14,9 - - 16 9 - - W 1013,3 9 0,4
16.08.2018 04:00:00 15,9 15,8 - - 22 12 - - W 1013,4 3,4 0,6
16.08.2018 03:00:00 16,3 16,1 - - 24 13 - - SW 1013,7 2,6 0,4
16.08.2018 02:00:00 16,2 16,0 - - 24 13 - - SW 1014,3 4,4 0,6
16.08.2018 01:00:00 16,2 16,0 - - 24 13 - - SW 1014,8 2,6 0,4
16.08.2018 00:00:00 16,2 15,9 - - 22 12 - - SSW 1015,2 4,8 0,0
15.08.2018 23:00:00 16,1 15,9 - - 18 10 - - SSW 1015,7 5 0,2
15.08.2018 22:00:00 16,1 15,7 - - 15 8 - - SSW 1016,4 3,9 0,0
15.08.2018 21:00:00 16,0 15,8 - - 21 11 - - WSW 1016,6 7 0,4
15.08.2018 20:00:00 16,5 16,0 - - 22 12 - - WSW 1016,7 26 0,2
15.08.2018 19:00:00 16,8 15,7 - - 21 11 - - WSW 1016,8 6 0,0
15.08.2018 18:00:00 18,0 15,7 - - 18 10 - - SW 1017,2 35 0,0
15.08.2018 17:00:00 18,4 15,7 - - 22 12 - - WSW 1017,5 28 0,0
15.08.2018 16:00:00 18,9 15,3 - - 22 12 - - SW 1017,8 40 0,0
15.08.2018 15:00:00 19,0 15,8 - - 18 10 - - WSW 1018,3 30 0,0
15.08.2018 14:00:00 19,5 15,8 - - 21 11 - - WSW 1018,5 26 0,0
15.08.2018 13:00:00 19,6 15,5 - - 18 10 - - WSW 1018,8 45 0,0
15.08.2018 12:00:00 18,5 15,7 - - 18 10 - - SW 1019,0 35 0,0
15.08.2018 11:00:00 17,8 15,2 - - 18 10 - - WSW 1019,3 20 0,0
15.08.2018 10:00:00 17,5 15,8 18,2 17,2 15 8 - - SW 1019,3 24 0,0
15.08.2018 09:00:00 16,3 15,0 - - 15 8 - - SW 1019,6 28 0,0
15.08.2018 08:00:00 15,9 15,4 - - 16 9 - - WSW 1019,5 14 0,0
15.08.2018 07:00:00 15,5 15,1 - - 16 9 - - WSW 1019,6 14 0,0
15.08.2018 06:00:00 15,4 15,2 - - 21 11 - - WSW 1019,4 8 0,0
15.08.2018 05:00:00 15,1 14,9 - - 15 8 - - WSW 1019,5 6 0,0
15.08.2018 04:00:00 15,0 14,7 - - 11 6 - - W 1019,8 8 0,0
15.08.2018 03:00:00 15,0 14,7 - - 13 7 - - WSW 1020,0 5 0,0
15.08.2018 02:00:00 15,0 14,6 - - 13 7 - - W 1020,1 12 0,0
15.08.2018 01:00:00 15,4 15,0 - - 13 7 - - WNW 1020,1 8 0,0
15.08.2018 00:00:00 15,3 14,9 - - 13 7 - - W 1020,3 8 0,0
14.08.2018 23:00:00 15,2 14,4 - - 9 5 - - WNW 1020,4 11 0,0
14.08.2018 22:00:00 15,5 13,8 - - 15 8 - - WNW 1020,6 18 0,0
14.08.2018 21:00:00 16,1 13,7 - - 22 12 - - WNW 1020,4 28 0,0
14.08.2018 20:00:00 16,2 14,9 - - 21 11 - - W 1020,0 13 0,0
14.08.2018 19:00:00 16,7 14,9 - - 21 11 - - W 1019,8 16 0,0
14.08.2018 18:00:00 17,0 14,4 - - 18 10 - - W 1020,0 21 0,0
14.08.2018 17:00:00 17,3 14,1 - - 22 12 - - W 1020,1 30 0,0
14.08.2018 16:00:00 17,4 14,3 - - 22 12 - - W 1020,0 21 0,0
14.08.2018 15:00:00 18,5 16,1 - - 22 12 - - WNW 1019,7 27 0,0
14.08.2018 14:00:00 17,7 15,6 - - 22 12 - - WNW 1019,6 22 0,0
14.08.2018 13:00:00 17,5 16,6 - - 22 12 - - WNW 1019,4 24 0,0
14.08.2018 12:00:00 16,8 16,5 - - 18 10 - - WNW 1019,2 4,9 0,2
14.08.2018 11:00:00 16,8 16,5 - - 15 8 - - WNW 1018,9 1,9 0,0
14.08.2018 10:00:00 16,2 15,9 18,4 17,2 15 8 - - WNW 1018,7 14 0,0
14.08.2018 09:00:00 15,7 15,6 - - 13 7 - - WNW 1018,1 9 0,2
14.08.2018 08:00:00 15,5 15,4 - - 16 9 - - WNW 1017,7 3,1 0,0
14.08.2018 07:00:00 15,6 15,5 - - 16 9 - - WNW 1017,3 3,4 0,6
14.08.2018 06:00:00 15,8 15,6 - - 9 5 - - WNW 1016,7 1,1 0,2
14.08.2018 05:00:00 15,4 15,2 - - 9 5 - - W 1016,5 7 0,0
14.08.2018 04:00:00 15,2 15,1 - - 13 7 - - W 1016,5 9 0,0
14.08.2018 03:00:00 15,0 14,9 - - 11 6 - - WNW 1016,2 6 0,0
14.08.2018 02:00:00 14,9 14,7 - - 11 6 - - WNW 1016,2 7 0,0
14.08.2018 01:00:00 15,3 15,0 - - 15 8 - - WNW 1016,0 10 0,0
14.08.2018 00:00:00 15,0 14,7 - - 15 8 - - WNW 1015,6 11 0,0
13.08.2018 23:00:00 14,7 14,3 - - 9 5 - - WNW 1015,4 13 0,0
13.08.2018 22:00:00 15,4 14,5 - - 15 8 - - WNW 1015,0 17 0,0
13.08.2018 21:00:00 15,9 14,9 - - 15 8 - - NW 1014,3 21 0,0
13.08.2018 20:00:00 16,3 14,8 - - 15 8 - - NW 1013,6 30 0,0
13.08.2018 19:00:00 16,6 14,5 - - 16 9 - - NW 1013,0 40 0,0
13.08.2018 18:00:00 17,4 14,7 - - 16 9 - - NNW 1012,5 30 0,0
13.08.2018 17:00:00 19,6 15,2 - - 18 10 - - NW 1012,1 45 0,0
13.08.2018 16:00:00 19,8 16,0 - - 22 12 - - NW 1011,8 35 0,0
13.08.2018 15:00:00 18,5 15,8 - - 21 11 - - NW 1011,5 20 0,0
13.08.2018 14:00:00 18,7 15,9 - - 18 10 - - NW 1011,1 30 0,0
13.08.2018 13:00:00 18,7 16,4 - - 16 9 - - NW 1010,7 22 0,0
13.08.2018 12:00:00 17,0 16,0 - - 18 10 - - WNW 1010,5 15 0,0
13.08.2018 11:00:00 16,2 15,5 - - 13 7 - - W 1010,2 16 0,0
13.08.2018 10:00:00 15,7 15,1 18,2 17,2 13 7 - - W 1009,6 23 0,0
13.08.2018 09:00:00 15,8 15,7 - - 15 8 - - WNW 1009,0 27 0,0
13.08.2018 08:00:00 14,7 14,6 - - 9 5 - - WNW 1009,0 10 0,0
13.08.2018 07:00:00 14,3 14,3 - - 9 5 - - W 1008,2 10 0,0
13.08.2018 06:00:00 14,1 14,0 - - 8 4 - - WNW 1007,7 8 0,0
13.08.2018 05:00:00 14,3 14,2 - - 13 7 - - WNW 1007,4 9 0,0
13.08.2018 04:00:00 14,5 14,5 - - 11 6 - - WNW 1007,2 0,4 0,0
13.08.2018 03:00:00 14,1 14,1 - - 8 4 - - WNW 1007,1 7 0,0
13.08.2018 02:00:00 14,3 14,2 - - 11 6 - - W 1007,1 12 0,0
13.08.2018 01:00:00 14,5 14,4 - - 11 6 - - WNW 1007,2 0,9 0,0
13.08.2018 00:00:00 14,6 14,4 - - 9 5 - - WNW 1007,0 1,3 0,0
12.08.2018 23:00:00 14,5 14,3 - - 11 6 - - W 1006,9 4,2 0,2
12.08.2018 22:00:00 14,6 14,4 - - 11 6 - - W 1006,9 17 0,0
12.08.2018 21:00:00 14,7 14,4 - - 5 3 - - SW 1006,6 18 0,0
12.08.2018 20:00:00 14,8 14,5 - - 9 5 - - W 1006,5 15 2,0
12.08.2018 19:00:00 14,8 14,5 - - 8 4 - - W 1006,7 6 2,2
12.08.2018 18:00:00 15,4 14,9 - - 9 5 - - W 1006,7 3,8 2,2
12.08.2018 17:00:00 15,4 14,7 - - 11 6 - - W 1006,8 10 3,2
12.08.2018 16:00:00 17,1 15,0 - - 18 10 - - SSW 1006,9 30 0,6
12.08.2018 15:00:00 17,5 15,4 - - 11 6 - - WNW 1007,0 27 0,0
12.08.2018 14:00:00 18,2 16,5 - - 16 9 - - S 1007,1 29 0,6
12.08.2018 13:00:00 18,1 15,4 - - 21 11 - - S 1007,3 30 0,0
12.08.2018 12:00:00 19,1 17,1 - - 15 8 - - SSW 1007,3 35 0,2
12.08.2018 11:00:00 17,9 17,2 - - 13 7 - - WSW 1007,6 40 0,0
12.08.2018 10:00:00 16,9 16,9 18,0 17,4 16 9 - - WSW 1007,6 40 0,2
12.08.2018 09:00:00 17,1 17,1 - - 18 10 - - SSW 1007,6 0,2 0,2
12.08.2018 08:00:00 16,2 16,2 - - 28 15 50 27 S 1007,8 3,2 1,8
12.08.2018 07:00:00 16,2 16,2 - - 31 17 52 28 S 1008,2 0,1 1,2
12.08.2018 06:00:00 16,2 16,2 - - 24 13 - - S 1008,8 1,5 1,4
12.08.2018 05:00:00 16,1 16,1 - - 22 12 - - S 1009,4 2,0 2,6
12.08.2018 04:00:00 16,1 16,1 - - 22 12 - - S 1010,4 0,3 0,2
12.08.2018 03:00:00 16,0 16,0 - - 22 12 - - S 1011,1 0,1 0,2
12.08.2018 02:00:00 16,0 15,9 - - 24 13 - - S 1012,2 0,2 1,8
12.08.2018 01:00:00 16,0 15,9 - - 24 13 - - S 1013,0 0,1 0,4
12.08.2018 00:00:00 16,3 16,2 - - 24 13 - - S 1013,7 0,5 1,4
11.08.2018 23:00:00 16,3 16,2 - - 26 14 46 25 S 1014,3 5 2,2
11.08.2018 22:00:00 16,1 16,0 - - 24 13 - - S 1015,0 5 3,4
11.08.2018 21:00:00 16,0 15,8 - - 24 13 48 26 SSW 1015,5 3,6 0,4
11.08.2018 20:00:00 15,9 15,7 - - 26 14 - - S 1016,0 4,9 4,6
11.08.2018 19:00:00 15,8 15,5 - - 26 14 - - S 1016,6 4,3 0,2
11.08.2018 18:00:00 15,6 15,2 - - 28 15 48 26 S 1017,2 4,8 0,0
11.08.2018 17:00:00 16,0 15,6 - - 26 14 50 27 S 1017,7 3,8 0,0
11.08.2018 16:00:00 16,2 15,6 - - 29 16 - - S 1018,2 8 0,0
11.08.2018 15:00:00 16,5 16,0 - - 29 16 52 28 S 1018,8 8 0,2
11.08.2018 14:00:00 15,9 15,7 - - 28 15 46 25 S 1019,4 4,6 0,2
11.08.2018 13:00:00 15,4 15,3 - - 29 16 - - S 1019,8 3,9 1,2

tt = temperature
td = dewpoint
tt -20cm = temperature -20cm
tt -100cm = temperature -100cm
ff = wind speed
fx = gusts
dd = wind direction
ppp = reduced air pressure
vv = visibility
rr = precipitation

Next stations